| time (UTC) | temp F | wind direction | speed knots | gust knots | rain 1hr in | rain 24hr in | rain mn in | humidity % | barometer mb |
| 20260507155504 | 71 | 61 | 4.3 | 9.6 | 0.00 | 0.00 | 0.00 | 47 | 1006.4 |
| 20260507155004 | 71 | 23 | 4.3 | 9.6 | 0.00 | 0.00 | 0.00 | 48 | 1006.4 |
| 20260507154504 | 71 | 32 | 2.6 | 9.6 | 0.00 | 0.00 | 0.00 | 48 | 1006.4 |
| 20260507154004 | 71 | 68 | 4.3 | 8.7 | 0.00 | 0.00 | 0.00 | 48 | 1006.4 |
| 20260507153504 | 71 | 54 | 4.3 | 10.4 | 0.00 | 0.00 | 0.00 | 48 | 1006.4 |
| 20260507153322 | 71 | 338 | 3.5 | 10.4 | 0.00 | 0.00 | 0.00 | 48 | 1006.4 |
| 20260507153004 | 71 | 338 | 3.5 | 10.4 | 0.00 | 0.00 | 0.00 | 48 | 1006.4 |
| 20260507152504 | 71 | 349 | 5.2 | 9.6 | 0.00 | 0.00 | 0.00 | 48 | 1007.4 |
| 20260507152004 | 71 | 25 | 4.3 | 8.7 | 0.00 | 0.00 | 0.00 | 48 | 1007.4 |
| 20260507151504 | 71 | 19 | 3.5 | 7.0 | 0.00 | 0.00 | 0.00 | 48 | 1007.4 |
| 20260507151004 | 71 | 15 | 3.5 | 7.0 | 0.00 | 0.00 | 0.00 | 48 | 1006.4 |
| 20260507150504 | 71 | 40 | 2.6 | 7.0 | 0.00 | 0.00 | 0.00 | 48 | 1006.4 |
| 20260507150005 | 71 | 43 | 3.5 | 7.8 | 0.00 | 0.00 | 0.00 | 48 | 1006.4 |
| 20260507145504 | 71 | 67 | 4.3 | 9.6 | 0.00 | 0.00 | 0.00 | 48 | 1007.4 |
| 20260507145004 | 71 | 94 | 3.5 | 9.6 | 0.00 | 0.00 | 0.00 | 48 | 1007.4 |
| 20260507144504 | 71 | 94 | 2.6 | 8.7 | 0.00 | 0.00 | 0.00 | 48 | 1007.4 |
| 20260507144004 | 71 | 42 | 3.5 | 8.7 | 0.00 | 0.00 | 0.00 | 48 | 1007.4 |
| 20260507143504 | 71 | 31 | 4.3 | 10.4 | 0.00 | 0.00 | 0.00 | 48 | 1007.4 |
| 20260507143004 | 70 | 43 | 6.1 | 10.4 | 0.00 | 0.00 | 0.00 | 48 | 1007.4 |
| 20260507142504 | 70 | 43 | 4.3 | 11.3 | 0.00 | 0.00 | 0.00 | 48 | 1007.4 |
| 20260507142004 | 68 | 28 | 3.5 | 11.3 | 0.00 | 0.00 | 0.00 | 50 | 1007.4 |
| 20260507141505 | 68 | 23 | 5.2 | 8.7 | 0.00 | 0.00 | 0.00 | 50 | 1007.4 |
| 20260507141004 | 68 | 19 | 4.3 | 8.7 | 0.00 | 0.00 | 0.00 | 50 | 1008.4 |
| 20260507140504 | 68 | 23 | 4.3 | 9.6 | 0.00 | 0.00 | 0.00 | 50 | 1008.4 |
| 20260507140004 | 68 | 36 | 6.1 | 9.6 | 0.00 | 0.00 | 0.00 | 50 | 1008.4 |
| 20260507135504 | 68 | 36 | 4.3 | 9.6 | 0.00 | 0.00 | 0.00 | 50 | 1008.4 |
| 20260507135004 | 68 | 25 | 3.5 | 8.7 | 0.00 | 0.00 | 0.00 | 50 | 1008.4 |
| 20260507134504 | 68 | 28 | 4.3 | 8.7 | 0.00 | 0.00 | 0.00 | 50 | 1008.4 |
| 20260507134003 | 68 | 40 | 4.3 | 8.7 | 0.00 | 0.00 | 0.00 | 50 | 1008.4 |
| 20260507133504 | 68 | 47 | 3.5 | 11.3 | 0.00 | 0.00 | 0.00 | 50 | 1008.4 |
| 20260507133004 | 68 | 51 | 4.3 | 11.3 | 0.00 | 0.00 | 0.00 | 50 | 1008.4 |
| 20260507132504 | 68 | 39 | 2.6 | 7.0 | 0.00 | 0.00 | 0.00 | 50 | 1008.4 |
| 20260507132004 | 68 | 37 | 1.7 | 7.0 | 0.00 | 0.00 | 0.00 | 50 | 1008.4 |
| 20260507131504 | 68 | 57 | 2.6 | 7.0 | 0.00 | 0.00 | 0.00 | 50 | 1008.4 |
| 20260507131004 | 68 | 47 | 3.5 | 7.8 | 0.00 | 0.00 | 0.00 | 50 | 1008.4 |
| 20260507130503 | 68 | 39 | 6.1 | 10.4 | 0.00 | 0.00 | 0.00 | 50 | 1008.4 |
| 20260507130004 | 68 | 31 | 6.1 | 10.4 | 0.00 | 0.00 | 0.00 | 50 | 1008.4 |
| 20260507125504 | 68 | 13 | 2.6 | 9.6 | 0.00 | 0.00 | 0.00 | 50 | 1008.4 |
| 20260507125004 | 68 | 20 | 2.6 | 7.8 | 0.00 | 0.00 | 0.00 | 50 | 1008.4 |
| 20260507124616 | 68 | 34 | 3.5 | 7.8 | 0.00 | 0.00 | 0.00 | 50 | 1008.4 |
| 20260507124504 | 68 | 34 | 3.5 | 7.8 | 0.00 | 0.00 | 0.00 | 50 | 1008.4 |
| 20260507124004 | 68 | 26 | 1.7 | 7.8 | 0.00 | 0.00 | 0.00 | 50 | 1008.4 |
| 20260507123504 | 68 | 14 | 1.7 | 6.1 | 0.00 | 0.00 | 0.00 | 50 | 1008.4 |
| 20260507123005 | 68 | 38 | 1.7 | 6.1 | 0.00 | 0.00 | 0.00 | 50 | 1008.4 |
| 20260507122503 | 68 | 48 | 3.5 | 10.4 | 0.00 | 0.00 | 0.00 | 50 | 1009.4 |
| 20260507122004 | 68 | 44 | 4.3 | 10.4 | 0.00 | 0.00 | 0.00 | 50 | 1009.4 |
| 20260507121504 | 68 | 9 | 1.7 | 8.7 | 0.00 | 0.00 | 0.00 | 50 | 1009.4 |
| 20260507121005 | 68 | 44 | 2.6 | 10.4 | 0.00 | 0.00 | 0.00 | 50 | 1009.4 |
| 20260507120504 | 68 | 58 | 3.5 | 10.4 | 0.00 | 0.00 | 0.00 | 50 | 1009.4 |
| 20260507120005 | 68 | 40 | 3.5 | 7.0 | 0.00 | 0.00 | 0.00 | 50 | 1009.4 |
| 20260507115504 | 68 | 37 | 4.3 | 9.6 | 0.00 | 0.00 | 0.00 | 50 | 1009.4 |
| 20260507115004 | 68 | 38 | 1.7 | 9.6 | 0.00 | 0.00 | 0.00 | 50 | 1009.4 |
| 20260507114504 | 68 | 13 | 0.9 | 8.7 | 0.00 | 0.00 | 0.00 | 50 | 1009.4 |
| 20260507114004 | 68 | 4 | 3.5 | 8.7 | 0.00 | 0.00 | 0.00 | 50 | 1009.4 |
| 20260507113504 | 68 | 19 | 3.5 | 13.0 | 0.00 | 0.00 | 0.00 | 50 | 1009.4 |
| 20260507113006 | 68 | 31 | 2.6 | 13.0 | 0.00 | 0.00 | 0.00 | 52 | 1009.4 |
| 20260507112504 | 68 | 35 | 4.3 | 9.6 | 0.00 | 0.00 | 0.00 | 52 | 1009.4 |
| 20260507112004 | 67 | 54 | 2.6 | 7.8 | 0.00 | 0.00 | 0.00 | 51 | 1009.4 |
| 20260507111504 | 67 | 72 | 1.7 | 6.1 | 0.00 | 0.00 | 0.00 | 51 | 1009.4 |
| 20260507111004 | 64 | 38 | 2.6 | 6.1 | 0.00 | 0.00 | 0.00 | 55 | 1010.4 |
| 20260507110504 | 64 | 34 | 2.6 | 6.1 | 0.00 | 0.00 | 0.00 | 55 | 1010.4 |
| 20260507110004 | 64 | 55 | 1.7 | 7.0 | 0.00 | 0.00 | 0.00 | 55 | 1010.4 |
| 20260507105504 | 64 | 86 | 1.7 | 7.0 | 0.00 | 0.00 | 0.00 | 55 | 1010.4 |
| 20260507105004 | 64 | 106 | 0.9 | 5.2 | 0.00 | 0.00 | 0.00 | 55 | 1010.4 |
| 20260507104505 | 64 | 144 | 0.9 | 5.2 | 0.00 | 0.00 | 0.00 | 55 | 1010.4 |
| 20260507104004 | 64 | 136 | 0.9 | 5.2 | 0.00 | 0.00 | 0.00 | 55 | 1010.4 |
| 20260507103504 | 64 | 35 | 0.9 | 5.2 | 0.00 | 0.00 | 0.00 | 55 | 1010.4 |
| 20260507103004 | 66 | 38 | 1.7 | 5.2 | 0.00 | 0.00 | 0.00 | 52 | 1010.4 |
| 20260507102504 | 66 | 56 | 1.7 | 5.2 | 0.00 | 0.00 | 0.00 | 52 | 1010.4 |
| 20260507102006 | 66 | 49 | 2.6 | 6.1 | 0.00 | 0.00 | 0.00 | 52 | 1010.4 |
| 20260507101504 | 66 | 60 | 2.6 | 6.1 | 0.00 | 0.00 | 0.00 | 52 | 1010.4 |
| 20260507101004 | 66 | 116 | 1.7 | 6.1 | 0.00 | 0.00 | 0.00 | 52 | 1010.4 |
| 20260507100504 | 67 | 108 | 1.7 | 5.2 | 0.00 | 0.00 | 0.00 | 49 | 1010.4 |
| 20260507100005 | 66 | 40 | 2.6 | 7.0 | 0.00 | 0.00 | 0.00 | 54 | 1010.4 |
| 20260507095504 | 66 | 45 | 1.7 | 7.0 | 0.00 | 0.00 | 0.00 | 54 | 1010.4 |
| 20260507095004 | 66 | 114 | 0.9 | 5.2 | 0.00 | 0.00 | 0.00 | 54 | 1010.4 |
| 20260507094504 | 66 | 112 | 0.9 | 5.2 | 0.00 | 0.00 | 0.00 | 54 | 1010.4 |
| 20260507094004 | 64 | 100 | 0.0 | 1.7 | 0.00 | 0.00 | 0.00 | 59 | 1010.4 |
| 20260507093504 | 64 | 93 | 0.9 | 3.5 | 0.00 | 0.00 | 0.00 | 59 | 1010.4 |
| 20260507093004 | 64 | 108 | 0.9 | 5.2 | 0.00 | 0.00 | 0.00 | 59 | 1010.4 |
| 20260507092504 | 64 | 146 | 0.9 | 5.2 | 0.00 | 0.00 | 0.00 | 58 | 1010.4 |
| 20260507092004 | 63 | 223 | 0.9 | 3.5 | 0.00 | 0.00 | 0.00 | 61 | 1010.4 |
| 20260507091504 | 63 | 220 | 0.9 | 3.5 | 0.00 | 0.00 | 0.00 | 61 | 1010.4 |
| 20260507091004 | 62 | 124 | 0.9 | 3.5 | 0.00 | 0.00 | 0.00 | 62 | 1011.5 |
| 20260507090504 | 64 | 97 | 0.9 | 3.5 | 0.00 | 0.00 | 0.00 | 60 | 1011.5 |
| 20260507090005 | 64 | 45 | 0.9 | 2.6 | 0.00 | 0.00 | 0.00 | 66 | 1011.5 |
| 20260507085503 | 64 | 267 | 0.9 | 2.6 | 0.00 | 0.00 | 0.00 | 66 | 1010.4 |
| 20260507085004 | 64 | 274 | 0.9 | 2.6 | 0.00 | 0.00 | 0.00 | 66 | 1010.4 |
| 20260507084504 | 64 | 347 | 0.9 | 2.6 | 0.00 | 0.00 | 0.00 | 66 | 1010.4 |
| 20260507084004 | 64 | 50 | 0.9 | 2.6 | 0.00 | 0.00 | 0.00 | 66 | 1010.4 |
| 20260507083504 | 64 | 97 | 0.9 | 3.5 | 0.00 | 0.00 | 0.00 | 66 | 1010.4 |
| 20260507083004 | 64 | 86 | 1.7 | 3.5 | 0.00 | 0.00 | 0.00 | 66 | 1010.4 |
| 20260507082504 | 64 | 14 | 0.9 | 3.5 | 0.00 | 0.00 | 0.00 | 66 | 1009.4 |
| 20260507082004 | 64 | 151 | 0.9 | 4.3 | 0.00 | 0.00 | 0.00 | 66 | 1009.4 |
| 20260507081504 | 63 | 140 | 0.9 | 4.3 | 0.00 | 0.00 | 0.00 | 67 | 1009.4 |
| 20260507081004 | 63 | 87 | 0.9 | 4.3 | 0.00 | 0.00 | 0.00 | 67 | 1010.4 |
| 20260507080504 | 63 | 71 | 1.7 | 5.2 | 0.00 | 0.00 | 0.00 | 69 | 1010.4 |
| 20260507080005 | 63 | 336 | 1.7 | 5.2 | 0.00 | 0.00 | 0.00 | 69 | 1010.4 |
| 20260507075504 | 63 | 340 | 0.9 | 4.3 | 0.00 | 0.00 | 0.00 | 72 | 1010.4 |
| 20260507075004 | 63 | 20 | 0.9 | 3.5 | 0.00 | 0.00 | 0.00 | 72 | 1010.4 |
| 20260507074504 | 62 | 32 | 0.9 | 4.3 | 0.00 | 0.00 | 0.00 | 78 | 1010.4 |
| 20260507074004 | 62 | 50 | 0.9 | 4.3 | 0.00 | 0.00 | 0.00 | 78 | 1010.4 |
| 20260507073505 | 55 | 1 | 0.9 | 4.3 | 0.00 | 0.00 | 0.00 | 93 | 1010.4 |
| 20260507073004 | 55 | 303 | 0.9 | 3.5 | 0.00 | 0.00 | 0.00 | 93 | 1010.4 |
| 20260507072503 | 55 | 328 | 0.9 | 2.6 | 0.00 | 0.00 | 0.00 | 93 | 1010.4 |
| 20260507072004 | 55 | 50 | 0.9 | 2.6 | 0.00 | 0.00 | 0.00 | 93 | 1010.4 |
| 20260507071504 | 55 | 106 | 0.9 | 2.6 | 0.00 | 0.00 | 0.00 | 93 | 1010.4 |
| 20260507071004 | 55 | 132 | 0.0 | 1.7 | 0.00 | 0.00 | 0.00 | 93 | 1010.4 |
| 20260507070505 | 55 | 146 | 0.0 | 1.7 | 0.00 | 0.00 | 0.00 | 93 | 1010.4 |
| 20260507070009 | 55 | 193 | 0.0 | 2.6 | 0.00 | 0.00 | 0.00 | 93 | 1010.4 |
| 20260507065504 | 55 | 161 | 0.0 | 2.6 | 0.00 | 0.00 | 0.00 | 93 | 1010.4 |
| 20260507065004 | 47 | 142 | 0.0 | 1.7 | 0.00 | 0.00 | 0.00 | 91 | 1010.4 |
| 20260507064504 | 47 | 125 | 0.0 | 1.7 | 0.00 | 0.00 | 0.00 | 91 | 1010.4 |
| 20260507064004 | 47 | 101 | 0.0 | 2.6 | 0.00 | 0.00 | 0.00 | 91 | 1010.4 |
| 20260507063503 | 47 | 118 | 0.9 | 3.5 | 0.00 | 0.00 | 0.00 | 91 | 1010.4 |
| 20260507063004 | 47 | 118 | 1.7 | 3.5 | 0.00 | 0.00 | 0.00 | 91 | 1010.4 |
| 20260507062505 | 47 | 112 | 1.7 | 3.5 | 0.00 | 0.00 | 0.00 | 91 | 1010.4 |
| 20260507062004 | 47 | 116 | 0.9 | 3.5 | 0.00 | 0.00 | 0.00 | 91 | 1010.4 |
| 20260507061504 | 47 | 136 | 0.0 | 2.6 | 0.00 | 0.00 | 0.00 | 91 | 1010.4 |
| 20260507061004 | 47 | 167 | 0.0 | 2.6 | 0.00 | 0.00 | 0.00 | 91 | 1010.4 |
| 20260507060504 | 47 | 155 | 1.7 | 3.5 | 0.00 | 0.00 | 0.00 | 91 | 1010.4 |
| 20260507060004 | 47 | 155 | 1.7 | 3.5 | 0.00 | 0.00 | 0.00 | 91 | 1010.4 |
| 20260507055504 | 47 | 159 | 0.0 | 3.5 | 0.00 | 0.00 | 0.00 | 91 | 1010.4 |
| 20260507055004 | 47 | 135 | 0.0 | 1.7 | 0.00 | 0.00 | 0.00 | 91 | 1010.4 |
| 20260507054504 | 47 | 135 | 0.0 | 1.7 | 0.00 | 0.00 | 0.00 | 91 | 1010.4 |
| 20260507054005 | 47 | 0 | 0.0 | 0.0 | 0.00 | 0.00 | 0.00 | 91 | 1010.4 |
| 20260507053504 | 47 | 292 | 0.9 | 1.7 | 0.00 | 0.00 | 0.00 | 91 | 1010.4 |
| 20260507053005 | 47 | 270 | 0.9 | 5.2 | 0.00 | 0.00 | 0.00 | 91 | 1010.4 |
| 20260507052504 | 47 | 238 | 0.0 | 5.2 | 0.00 | 0.00 | 0.00 | 91 | 1010.4 |
| 20260507052004 | 47 | 182 | 0.0 | 3.5 | 0.00 | 0.00 | 0.00 | 91 | 1010.4 |
| 20260507051504 | 47 | 182 | 0.0 | 3.5 | 0.00 | 0.00 | 0.00 | 91 | 1010.4 |
| 20260507051004 | 47 | 116 | 0.0 | 2.6 | 0.00 | 0.00 | 0.00 | 91 | 1009.4 |
| 20260507050504 | 47 | 131 | 0.0 | 2.6 | 0.00 | 0.00 | 0.00 | 91 | 1009.4 |
| 20260507050005 | 47 | 158 | 0.0 | 2.6 | 0.00 | 0.00 | 0.00 | 91 | 1009.4 |
| 20260507045504 | 47 | 0 | 0.0 | 0.0 | 0.00 | 0.00 | 0.00 | 91 | 1009.4 |
| 20260507045004 | 47 | 0 | 0.0 | 0.0 | 0.00 | 0.00 | 0.00 | 91 | 1009.4 |
| 20260507044504 | 47 | 0 | 0.0 | 0.0 | 0.00 | 0.00 | 0.00 | 91 | 1009.4 |
| 20260507044004 | 47 | 0 | 0.0 | 0.0 | 0.00 | 0.00 | 0.00 | 91 | 1009.4 |
| 20260507043504 | 47 | 203 | 0.0 | 1.7 | 0.00 | 0.00 | 0.00 | 91 | 1009.4 |
| 20260507043004 | 47 | 190 | 0.0 | 2.6 | 0.00 | 0.00 | 0.00 | 91 | 1009.4 |
| 20260507042504 | 47 | 181 | 0.0 | 3.5 | 0.00 | 0.00 | 0.00 | 91 | 1009.4 |
| 20260507042004 | 47 | 181 | 0.0 | 3.5 | 0.00 | 0.00 | 0.00 | 91 | 1009.4 |
| 20260507041504 | 47 | 0 | 0.0 | 0.0 | 0.00 | 0.00 | 0.00 | 91 | 1009.4 |
| 20260507041004 | 47 | 0 | 0.0 | 0.0 | 0.00 | 0.00 | 0.00 | 91 | 1009.4 |
| 20260507040504 | 47 | 203 | 0.0 | 2.6 | 0.00 | 0.00 | 0.00 | 91 | 1009.4 |
| 20260507040004 | 47 | 203 | 0.0 | 2.6 | 0.00 | 0.00 | 0.00 | 91 | 1009.4 |
| 20260507035504 | 47 | 203 | 0.0 | 3.5 | 0.00 | 0.00 | 0.00 | 91 | 1009.4 |
| 20260507035004 | 47 | 203 | 0.0 | 3.5 | 0.00 | 0.00 | 0.00 | 91 | 1009.4 |
| 20260507034505 | 47 | 0 | 0.0 | 0.0 | 0.00 | 0.00 | 0.00 | 91 | 1009.4 |
| 20260507034004 | 47 | 0 | 0.0 | 0.0 | 0.00 | 0.00 | 0.00 | 91 | 1009.4 |
| 20260507033504 | 47 | 0 | 0.0 | 0.0 | 0.00 | 0.00 | 0.00 | 91 | 1009.4 |
| 20260507033004 | 47 | 0 | 0.0 | 0.0 | 0.00 | 0.00 | 0.00 | 91 | 1009.4 |
| 20260507032504 | 47 | 0 | 0.0 | 0.0 | 0.00 | 0.00 | 0.00 | 91 | 1010.4 |
| 20260507032004 | 47 | 0 | 0.0 | 0.0 | 0.00 | 0.00 | 0.00 | 91 | 1010.4 |
| 20260507031504 | 47 | 0 | 0.0 | 0.0 | 0.00 | 0.00 | 0.00 | 91 | 1010.4 |
| 20260507031004 | 47 | 203 | 0.0 | 1.7 | 0.00 | 0.00 | 0.00 | 91 | 1009.4 |
| 20260507030504 | 47 | 203 | 0.0 | 1.7 | 0.00 | 0.00 | 0.00 | 91 | 1009.4 |
| 20260507030004 | 47 | 181 | 0.0 | 3.5 | 0.00 | 0.00 | 0.00 | 91 | 1009.4 |
| 20260507025504 | 47 | 190 | 0.0 | 3.5 | 0.00 | 0.00 | 0.00 | 91 | 1009.4 |
| 20260507025004 | 47 | 190 | 0.0 | 3.5 | 0.00 | 0.00 | 0.00 | 91 | 1009.4 |
| 20260507024504 | 47 | 0 | 0.0 | 0.0 | 0.00 | 0.00 | 0.00 | 91 | 1009.4 |
| 20260507024004 | 47 | 203 | 0.0 | 3.5 | 0.00 | 0.00 | 0.00 | 91 | 1009.4 |
| 20260507023504 | 47 | 211 | 0.0 | 3.5 | 0.00 | 0.00 | 0.00 | 91 | 1009.4 |
| 20260507023004 | 47 | 248 | 0.0 | 1.7 | 0.00 | 0.00 | 0.00 | 91 | 1009.4 |
| 20260507022504 | 47 | 264 | 0.9 | 5.2 | 0.00 | 0.00 | 0.00 | 91 | 1009.4 |
| 20260507022004 | 47 | 266 | 0.9 | 5.2 | 0.00 | 0.00 | 0.00 | 91 | 1009.4 |
| 20260507021504 | 47 | 292 | 0.0 | 2.6 | 0.00 | 0.00 | 0.00 | 91 | 1009.4 |
| 20260507021004 | 47 | 0 | 0.0 | 0.0 | 0.00 | 0.00 | 0.00 | 91 | 1010.4 |
| 20260507020504 | 47 | 0 | 0.0 | 0.0 | 0.00 | 0.00 | 0.00 | 91 | 1010.4 |
| 20260507020004 | 47 | 0 | 0.0 | 0.0 | 0.00 | 0.00 | 0.00 | 91 | 1010.4 |
| 20260507015504 | 47 | 0 | 0.0 | 0.0 | 0.00 | 0.00 | 0.00 | 91 | 1010.4 |
| 20260507015004 | 47 | 0 | 0.0 | 0.0 | 0.00 | 0.00 | 0.00 | 91 | 1010.4 |
| 20260507014504 | 47 | 0 | 0.0 | 0.0 | 0.00 | 0.00 | 0.00 | 91 | 1010.4 |
| 20260507014004 | 47 | 0 | 0.0 | 0.0 | 0.00 | 0.00 | 0.00 | 91 | 1010.4 |
| 20260507013504 | 47 | 0 | 0.0 | 0.0 | 0.00 | 0.00 | 0.00 | 91 | 1010.4 |
| 20260507013004 | 47 | 0 | 0.0 | 0.0 | 0.00 | 0.00 | 0.00 | 91 | 1010.4 |
| 20260507012504 | 47 | 0 | 0.0 | 0.0 | 0.00 | 0.00 | 0.00 | 91 | 1010.4 |
| 20260507012005 | 47 | 0 | 0.0 | 0.0 | 0.00 | 0.00 | 0.00 | 91 | 1010.4 |
| 20260507011504 | 47 | 0 | 0.0 | 0.0 | 0.00 | 0.00 | 0.00 | 91 | 1010.4 |
| 20260507011004 | 47 | 0 | 0.0 | 0.0 | 0.00 | 0.00 | 0.00 | 91 | 1011.5 |
| 20260507010504 | 47 | 0 | 0.0 | 0.0 | 0.00 | 0.00 | 0.00 | 91 | 1011.5 |
| 20260507010004 | 47 | 0 | 0.0 | 0.0 | 0.00 | 0.00 | 0.00 | 91 | 1011.5 |
| 20260507005504 | 47 | 0 | 0.0 | 0.0 | 0.00 | 0.00 | 0.00 | 91 | 1011.5 |
| 20260507005004 | 47 | 0 | 0.0 | 0.0 | 0.00 | 0.00 | 0.00 | 91 | 1011.5 |
| 20260507004504 | 47 | 0 | 0.0 | 0.0 | 0.00 | 0.00 | 0.00 | 91 | 1011.5 |
| 20260507004004 | 47 | 181 | 0.0 | 1.7 | 0.00 | 0.00 | 0.00 | 91 | 1010.4 |
| 20260507003504 | 47 | 166 | 0.0 | 3.5 | 0.00 | 0.00 | 0.00 | 91 | 1010.4 |
| 20260507003004 | 47 | 164 | 0.0 | 3.5 | 0.00 | 0.00 | 0.00 | 91 | 1010.4 |
| 20260507002504 | 47 | 0 | 0.0 | 0.0 | 0.00 | 0.00 | 0.00 | 91 | 1010.4 |
| 20260507002004 | 47 | 181 | 0.0 | 3.5 | 0.00 | 0.00 | 0.00 | 91 | 1010.4 |
| 20260507001504 | 47 | 181 | 0.0 | 3.5 | 0.00 | 0.00 | 0.00 | 91 | 1010.4 |
| 20260507001004 | 47 | 0 | 0.0 | 0.0 | 0.00 | 0.00 | 0.00 | 91 | 1011.5 |
| 20260507000504 | 47 | 0 | 0.0 | 0.0 | 0.00 | 0.00 | 0.00 | 91 | 1011.5 |
| 20260507000005 | 47 | 0 | 0.0 | 0.0 | 0.00 | 0.00 | 0.00 | 91 | 1011.5 |
| 20260506235504 | 47 | 0 | 0.0 | 0.0 | 0.00 | 0.00 | 0.00 | 91 | 1010.4 |
| 20260506235004 | 52 | 0 | 0.0 | 0.0 | 0.00 | 0.00 | 0.00 | 82 | 1010.4 |
| 20260506234504 | 52 | 0 | 0.0 | 0.0 | 0.00 | 0.00 | 0.00 | 82 | 1010.4 |
| 20260506234005 | 52 | 0 | 0.0 | 0.0 | 0.00 | 0.00 | 0.00 | 82 | 1010.4 |
| 20260506233504 | 52 | 203 | 0.0 | 1.7 | 0.00 | 0.00 | 0.00 | 82 | 1010.4 |
| 20260506233004 | 52 | 203 | 0.0 | 1.7 | 0.00 | 0.00 | 0.00 | 82 | 1010.4 |
| 20260506232504 | 52 | 0 | 0.0 | 0.0 | 0.00 | 0.00 | 0.00 | 82 | 1010.4 |
| 20260506232004 | 52 | 203 | 0.0 | 3.5 | 0.00 | 0.00 | 0.00 | 82 | 1010.4 |
| 20260506231504 | 52 | 203 | 0.0 | 3.5 | 0.00 | 0.00 | 0.00 | 82 | 1010.4 |
| 20260506231004 | 52 | 0 | 0.0 | 0.0 | 0.00 | 0.00 | 0.00 | 82 | 1010.4 |
| 20260506230504 | 52 | 0 | 0.0 | 0.0 | 0.00 | 0.00 | 0.00 | 82 | 1010.4 |
| 20260506230004 | 52 | 0 | 0.0 | 0.0 | 0.00 | 0.00 | 0.00 | 82 | 1010.4 |
| 20260506225504 | 52 | 0 | 0.0 | 0.0 | 0.00 | 0.00 | 0.00 | 82 | 1011.5 |
| 20260506225005 | 52 | 0 | 0.0 | 0.0 | 0.00 | 0.00 | 0.00 | 82 | 1011.5 |
| 20260506224504 | 52 | 0 | 0.0 | 0.0 | 0.00 | 0.00 | 0.00 | 82 | 1011.5 |
| 20260506224004 | 52 | 0 | 0.0 | 0.0 | 0.00 | 0.00 | 0.00 | 82 | 1010.4 |
| 20260506223504 | 52 | 0 | 0.0 | 0.0 | 0.00 | 0.00 | 0.00 | 82 | 1010.4 |
| 20260506223004 | 52 | 0 | 0.0 | 0.0 | 0.00 | 0.00 | 0.00 | 82 | 1010.4 |
| 20260506222504 | 52 | 0 | 0.0 | 0.0 | 0.00 | 0.00 | 0.00 | 82 | 1010.4 |
| 20260506222004 | 52 | 0 | 0.0 | 0.0 | 0.00 | 0.00 | 0.00 | 82 | 1010.4 |
| 20260506221505 | 52 | 0 | 0.0 | 0.0 | 0.00 | 0.00 | 0.00 | 82 | 1010.4 |
| 20260506221004 | 52 | 0 | 0.0 | 0.0 | 0.00 | 0.00 | 0.00 | 82 | 1010.4 |
| 20260506220504 | 52 | 248 | 0.0 | 5.2 | 0.00 | 0.00 | 0.00 | 82 | 1010.4 |
| 20260506220008 | 52 | 276 | 0.9 | 5.2 | 0.00 | 0.00 | 0.00 | 82 | 1010.4 |
| 20260506215504 | 52 | 287 | 0.0 | 3.5 | 0.00 | 0.00 | 0.00 | 82 | 1010.4 |
| 20260506215004 | 52 | 0 | 0.0 | 0.0 | 0.00 | 0.00 | 0.00 | 82 | 1010.4 |
| 20260506214504 | 52 | 0 | 0.0 | 0.0 | 0.00 | 0.00 | 0.00 | 82 | 1010.4 |
| 20260506214004 | 52 | 0 | 0.0 | 0.0 | 0.00 | 0.00 | 0.00 | 82 | 1010.4 |
| 20260506213504 | 52 | 0 | 0.0 | 0.0 | 0.00 | 0.00 | 0.00 | 82 | 1010.4 |
| 20260506213004 | 52 | 0 | 0.0 | 0.0 | 0.00 | 0.00 | 0.00 | 82 | 1010.4 |
| 20260506212504 | 52 | 0 | 0.0 | 0.0 | 0.00 | 0.00 | 0.00 | 82 | 1010.4 |
| 20260506212004 | 52 | 0 | 0.0 | 0.0 | 0.00 | 0.00 | 0.00 | 82 | 1010.4 |
| 20260506211504 | 52 | 0 | 0.0 | 0.0 | 0.00 | 0.00 | 0.00 | 82 | 1010.4 |
| 20260506211004 | 52 | 0 | 0.0 | 0.0 | 0.00 | 0.00 | 0.00 | 82 | 1010.4 |
| 20260506210504 | 52 | 0 | 0.0 | 0.0 | 0.00 | 0.00 | 0.00 | 82 | 1010.4 |
| 20260506210004 | 60 | 0 | 0.0 | 0.0 | 0.00 | 0.00 | 0.00 | 65 | 1010.4 |
| 20260506205504 | 60 | 203 | 0.0 | 1.7 | 0.00 | 0.00 | 0.00 | 65 | 1010.4 |
| 20260506205004 | 60 | 209 | 0.0 | 3.5 | 0.00 | 0.00 | 0.00 | 65 | 1010.4 |
| 20260506204504 | 60 | 255 | 0.9 | 5.2 | 0.00 | 0.00 | 0.00 | 65 | 1010.4 |
| 20260506204005 | 60 | 263 | 0.9 | 5.2 | 0.00 | 0.00 | 0.00 | 65 | 1009.4 |
| 20260506203504 | 60 | 244 | 0.0 | 4.3 | 0.00 | 0.00 | 0.00 | 65 | 1009.4 |
| 20260506203004 | 60 | 237 | 0.9 | 4.3 | 0.00 | 0.00 | 0.00 | 65 | 1009.4 |
| 20260506202504 | 60 | 249 | 0.9 | 4.3 | 0.00 | 0.00 | 0.00 | 65 | 1009.4 |
| 20260506202004 | 60 | 259 | 0.9 | 5.2 | 0.00 | 0.00 | 0.00 | 65 | 1009.4 |
| 20260506201504 | 60 | 266 | 1.7 | 5.2 | 0.00 | 0.00 | 0.00 | 65 | 1009.4 |
| 20260506201004 | 60 | 269 | 2.6 | 8.7 | 0.00 | 0.00 | 0.00 | 65 | 1009.4 |
| 20260506200504 | 60 | 281 | 3.5 | 8.7 | 0.00 | 0.00 | 0.00 | 65 | 1009.4 |
| 20260506200005 | 60 | 274 | 4.3 | 7.0 | 0.00 | 0.00 | 0.00 | 65 | 1009.4 |
| 20260506195504 | 60 | 262 | 4.3 | 9.6 | 0.00 | 0.00 | 0.00 | 65 | 1009.4 |
| 20260506195004 | 60 | 256 | 3.5 | 9.6 | 0.00 | 0.00 | 0.00 | 65 | 1009.4 |
| 20260506194504 | 60 | 250 | 1.7 | 7.8 | 0.00 | 0.00 | 0.00 | 65 | 1009.4 |
| 20260506194004 | 60 | 245 | 2.6 | 7.0 | 0.00 | 0.00 | 0.00 | 65 | 1009.4 |
| 20260506193504 | 60 | 250 | 2.6 | 7.0 | 0.00 | 0.00 | 0.00 | 65 | 1009.4 |
| 20260506193004 | 60 | 243 | 1.7 | 7.0 | 0.00 | 0.00 | 0.00 | 65 | 1009.4 |
| 20260506192504 | 60 | 249 | 3.5 | 8.7 | 0.00 | 0.00 | 0.00 | 65 | 1008.4 |
| 20260506192004 | 60 | 252 | 4.3 | 8.7 | 0.00 | 0.00 | 0.00 | 65 | 1008.4 |
| 20260506191504 | 60 | 241 | 3.5 | 10.4 | 0.00 | 0.00 | 0.00 | 65 | 1008.4 |
| 20260506191004 | 60 | 241 | 3.5 | 10.4 | 0.00 | 0.00 | 0.00 | 65 | 1007.4 |
| 20260506190504 | 60 | 245 | 3.5 | 8.7 | 0.00 | 0.00 | 0.00 | 65 | 1007.4 |
| 20260506190005 | 60 | 242 | 4.3 | 8.7 | 0.00 | 0.00 | 0.00 | 65 | 1007.4 |
| 20260506185504 | 60 | 243 | 4.3 | 7.8 | 0.00 | 0.00 | 0.00 | 65 | 1008.4 |
| 20260506185004 | 60 | 240 | 3.5 | 7.8 | 0.00 | 0.00 | 0.00 | 65 | 1008.4 |
| 20260506184504 | 60 | 251 | 3.5 | 10.4 | 0.00 | 0.00 | 0.00 | 65 | 1008.4 |
| 20260506184005 | 60 | 250 | 5.2 | 10.4 | 0.00 | 0.00 | 0.00 | 65 | 1008.4 |
| 20260506183504 | 60 | 246 | 6.1 | 10.4 | 0.00 | 0.00 | 0.00 | 65 | 1008.4 |
| 20260506183005 | 60 | 254 | 6.1 | 10.4 | 0.00 | 0.00 | 0.00 | 65 | 1008.4 |
| 20260506182504 | 60 | 256 | 7.8 | 17.4 | 0.00 | 0.00 | 0.00 | 65 | 1008.4 |
| 20260506182004 | 60 | 245 | 8.7 | 21.7 | 0.00 | 0.00 | 0.00 | 65 | 1008.4 |
| 20260506181505 | 60 | 234 | 6.1 | 21.7 | 0.00 | 0.00 | 0.00 | 65 | 1008.4 |
| 20260506181004 | 60 | 240 | 5.2 | 9.6 | 0.00 | 0.00 | 0.00 | 65 | 1008.4 |
| 20260506180504 | 60 | 254 | 6.1 | 12.2 | 0.00 | 0.00 | 0.00 | 65 | 1008.4 |
| 20260506180005 | 60 | 253 | 7.0 | 12.2 | 0.00 | 0.00 | 0.00 | 65 | 1008.4 |
| 20260506175504 | 60 | 247 | 6.1 | 13.0 | 0.00 | 0.00 | 0.00 | 65 | 1008.4 |
| 20260506175005 | 60 | 247 | 7.8 | 13.9 | 0.00 | 0.00 | 0.00 | 65 | 1008.4 |
| 20260506174504 | 60 | 241 | 8.7 | 15.6 | 0.00 | 0.00 | 0.00 | 65 | 1008.4 |
| 20260506174004 | 60 | 241 | 7.8 | 15.6 | 0.00 | 0.00 | 0.00 | 65 | 1008.4 |
| 20260506173504 | 60 | 239 | 7.8 | 13.9 | 0.00 | 0.00 | 0.00 | 65 | 1008.4 |
| 20260506173004 | 60 | 243 | 8.7 | 15.6 | 0.00 | 0.00 | 0.00 | 65 | 1008.4 |
| 20260506172504 | 60 | 247 | 9.6 | 19.1 | 0.00 | 0.00 | 0.00 | 66 | 1007.4 |
| 20260506172004 | 60 | 247 | 9.6 | 19.1 | 0.00 | 0.00 | 0.00 | 66 | 1007.4 |
| 20260506171504 | 61 | 248 | 10.4 | 18.2 | 0.00 | 0.00 | 0.00 | 67 | 1007.4 |
| 20260506171004 | 61 | 245 | 10.4 | 18.2 | 0.00 | 0.00 | 0.00 | 67 | 1007.4 |
| 20260506170504 | 61 | 251 | 9.6 | 16.5 | 0.00 | 0.00 | 0.00 | 67 | 1007.4 |
| 20260506170004 | 61 | 266 | 9.6 | 15.6 | 0.00 | 0.00 | 0.00 | 68 | 1007.4 |
| 20260506165504 | 62 | 268 | 10.4 | 17.4 | 0.00 | 0.00 | 0.00 | 65 | 1007.4 |
| 20260506165005 | 62 | 261 | 11.3 | 19.1 | 0.00 | 0.00 | 0.00 | 65 | 1007.4 |
| 20260506164504 | 62 | 252 | 10.4 | 19.1 | 0.00 | 0.00 | 0.00 | 65 | 1007.4 |
| 20260506164004 | 62 | 255 | 9.6 | 16.5 | 0.00 | 0.00 | 0.00 | 65 | 1006.4 |
| 20260506163504 | 62 | 260 | 10.4 | 18.2 | 0.00 | 0.00 | 0.00 | 65 | 1006.4 |
| 20260506163004 | 62 | 265 | 11.3 | 18.2 | 0.00 | 0.00 | 0.00 | 65 | 1006.4 |
| 20260506162504 | 62 | 268 | 11.3 | 18.2 | 0.00 | 0.00 | 0.00 | 65 | 1006.4 |
| 20260506162005 | 62 | 264 | 12.2 | 18.2 | 0.00 | 0.00 | 0.00 | 65 | 1006.4 |
| 20260506161504 | 64 | 264 | 12.2 | 24.3 | 0.00 | 0.00 | 0.00 | 60 | 1006.4 |
| 20260506161005 | 64 | 262 | 13.9 | 24.3 | 0.00 | 0.00 | 0.00 | 60 | 1006.4 |
| 20260506160504 | 64 | 263 | 13.9 | 23.5 | 0.00 | 0.00 | 0.00 | 60 | 1006.4 |
| 20260506160004 | 64 | 267 | 11.3 | 20.0 | 0.00 | 0.00 | 0.00 | 60 | 1006.4 |